DLH323 LICJ-EDDF

Flight info

Callsign DLH323
Flight time 2h 7m
Altitude 36000
Route ROSAS DCT LAT DCT GIKEB DCT EKPEB DCT BRENO DCT KONIN DCT ERNAS T161 DEBHI DEBHI1D
Aircraft A321/M-SDE2E3FGIJ1LORWXYZ/HB1

Departure

Time 2026-04-15 14:17
Airport Falcone–Borsellino Airport (LICJ)

Arrival

Time 2026-04-15 16:24
Airport Frankfurt Main Airport (EDDF)
Time Latitude Longitude Altitude Speed Heading
2026-04-15 13:32 38.18525 13.10498 53 ft 0 kts 324°
2026-04-15 14:05 38.18522 13.10501 53 ft 3 kts 326°
2026-04-15 14:06 38.18499 13.10510 53 ft 4 kts
2026-04-15 14:06 38.18473 13.10510 51 ft 4 kts 338°
2026-04-15 14:06 38.18449 13.10521 53 ft 4 kts
2026-04-15 14:06 38.18434 13.10512 53 ft 2 kts 62°
2026-04-15 14:07 38.18424 13.10488 53 ft 0 kts 62°
2026-04-15 14:11 38.18433 13.10508 53 ft 4 kts 62°
2026-04-15 14:11 38.18455 13.10567 52 ft 12 kts 66°
2026-04-15 14:11 38.18493 13.10681 53 ft 15 kts 67°
2026-04-15 14:11 38.18496 13.10783 53 ft 12 kts 108°
2026-04-15 14:12 38.18471 13.10887 53 ft 10 kts 101°
2026-04-15 14:12 38.18428 13.10956 53 ft 10 kts 129°
2026-04-15 14:12 38.18444 13.11051 53 ft 13 kts 66°
2026-04-15 14:12 38.18485 13.11171 53 ft 16 kts 67°
2026-04-15 14:13 38.18531 13.11310 53 ft 18 kts 67°
2026-04-15 14:13 38.18581 13.11459 53 ft 19 kts 67°
2026-04-15 14:13 38.18616 13.11585 53 ft 9 kts 90°
2026-04-15 14:13 38.18610 13.11672 53 ft 11 kts 96°
2026-04-15 14:14 38.18606 13.11714 53 ft 0 kts 97°
2026-04-15 14:15 38.18606 13.11716 50 ft 2 kts 97°
2026-04-15 14:15 38.18601 13.11766 53 ft 9 kts 97°
2026-04-15 14:15 38.18585 13.11864 51 ft 12 kts 117°
2026-04-15 14:15 38.18519 13.11883 53 ft 12 kts 237°
2026-04-15 14:16 38.18467 13.11729 53 ft 43 kts 246°
2026-04-15 14:16 38.18243 13.11075 50 ft 116 kts 246°
2026-04-15 14:16 38.17844 13.09898 56 ft 171 kts 246°
2026-04-15 14:16 38.17364 13.08453 619 ft 178 kts 246°
2026-04-15 14:17 38.16880 13.07006 1408 ft 178 kts 246°
2026-04-15 14:17 38.16367 13.05495 1785 ft 195 kts 247°
2026-04-15 14:17 38.15817 13.03856 2089 ft 210 kts 248°
2026-04-15 14:17 38.15499 13.01958 2308 ft 233 kts 267°
2026-04-15 14:18 38.15756 12.99826 2581 ft 258 kts 290°
2026-04-15 14:18 38.16703 12.97806 3260 ft 268 kts 312°
2026-04-15 14:18 38.18180 12.96350 4031 ft 272 kts 331°
2026-04-15 14:18 38.19753 12.94965 4717 ft 278 kts 318°
2026-04-15 14:19 38.21009 12.93130 5413 ft 281 kts 302°
2026-04-15 14:19 38.22075 12.91033 6185 ft 284 kts 301°
2026-04-15 14:19 38.23165 12.88884 6950 ft 288 kts 302°
2026-04-15 14:19 38.24256 12.86739 7701 ft 290 kts 301°
2026-04-15 14:20 38.25345 12.84600 8404 ft 294 kts 301°
2026-04-15 14:20 38.26478 12.82377 9129 ft 297 kts 301°
2026-04-15 14:20 38.27807 12.80351 9814 ft 303 kts 320°
2026-04-15 14:20 38.29665 12.79059 10375 ft 313 kts 342°
2026-04-15 14:21 38.31894 12.78828 10526 ft 335 kts 10°
2026-04-15 14:21 38.34079 12.79960 10794 ft 347 kts 38°
2026-04-15 14:21 38.35795 12.82125 11317 ft 350 kts 50°
2026-04-15 14:21 38.37421 12.84464 11937 ft 354 kts 50°
2026-04-15 14:22 38.39057 12.86827 12550 ft 357 kts 51°
2026-04-15 14:22 38.40704 12.89215 13168 ft 360 kts 51°
2026-04-15 14:22 38.42366 12.91623 13785 ft 362 kts 51°
2026-04-15 14:22 38.44035 12.94042 14385 ft 365 kts 51°
2026-04-15 14:23 38.45721 12.96482 14960 ft 368 kts 51°
2026-04-15 14:23 38.47422 12.98946 15532 ft 371 kts 51°
2026-04-15 14:23 38.49132 13.01422 16126 ft 373 kts 51°
2026-04-15 14:23 38.50855 13.03917 16682 ft 376 kts 51°
2026-04-15 14:24 38.52591 13.06434 17208 ft 379 kts 51°
2026-04-15 14:24 38.54336 13.08967 17740 ft 381 kts 51°
2026-04-15 14:24 38.56090 13.11516 18247 ft 383 kts 51°
2026-04-15 14:24 38.57853 13.14084 18744 ft 386 kts 51°
2026-04-15 14:25 38.59632 13.16678 19235 ft 389 kts 51°
2026-04-15 14:25 38.61425 13.19289 19720 ft 392 kts 51°
2026-04-15 14:25 38.63224 13.21915 20175 ft 394 kts 51°
2026-04-15 14:25 38.65036 13.24567 20607 ft 397 kts 51°
2026-04-15 14:26 38.66862 13.27235 21044 ft 400 kts 51°
2026-04-15 14:26 38.68701 13.29923 21458 ft 403 kts 51°
2026-04-15 14:26 38.70549 13.32629 21869 ft 405 kts 51°
2026-04-15 14:26 38.72413 13.35357 22280 ft 408 kts 51°
2026-04-15 14:27 38.74283 13.38094 22675 ft 410 kts 51°
2026-04-15 14:27 38.76171 13.40858 23054 ft 413 kts 52°
2026-04-15 14:27 38.78065 13.43636 23426 ft 415 kts 52°
2026-04-15 14:27 38.79971 13.46436 23814 ft 418 kts 51°
2026-04-15 14:28 38.82134 13.48973 24170 ft 425 kts 38°
2026-04-15 14:28 38.84701 13.50891 24519 ft 431 kts 26°
2026-04-15 14:28 38.87566 13.52088 24860 ft 437 kts 13°
2026-04-15 14:28 38.90601 13.52475 25200 ft 441 kts 360°
2026-04-15 14:29 38.93659 13.52048 25536 ft 444 kts 351°
2026-04-15 14:29 38.96711 13.51371 25865 ft 446 kts 351°
2026-04-15 14:29 38.99777 13.50687 26201 ft 449 kts 351°
2026-04-15 14:29 39.02863 13.49995 26541 ft 451 kts 351°
2026-04-15 14:30 39.05959 13.49300 26854 ft 453 kts 351°
2026-04-15 14:30 39.09073 13.48602 27160 ft 455 kts 351°
2026-04-15 14:30 39.12203 13.47901 27468 ft 458 kts 351°
2026-04-15 14:30 39.15346 13.47197 27765 ft 460 kts 351°
2026-04-15 14:31 39.18503 13.46492 28068 ft 462 kts 351°
2026-04-15 14:31 39.21679 13.45785 28361 ft 464 kts 351°
2026-04-15 14:31 39.24872 13.45071 28658 ft 466 kts 351°
2026-04-15 14:31 39.28073 13.44351 28929 ft 468 kts 351°
2026-04-15 14:32 39.31292 13.43622 29204 ft 470 kts 351°
2026-04-15 14:32 39.34520 13.42893 29489 ft 472 kts 351°
2026-04-15 14:32 39.37764 13.42161 29767 ft 474 kts 351°
2026-04-15 14:32 39.41025 13.41429 30019 ft 476 kts 351°
2026-04-15 14:33 39.44295 13.40694 30256 ft 479 kts 351°
2026-04-15 14:33 39.47582 13.39954 30509 ft 480 kts 351°
2026-04-15 14:33 39.50879 13.39213 30762 ft 481 kts 351°
2026-04-15 14:33 39.54177 13.38467 30996 ft 483 kts 350°
2026-04-15 14:34 39.57501 13.37710 31207 ft 486 kts 351°
2026-04-15 14:34 39.60844 13.36953 31548 ft 486 kts 351°
2026-04-15 14:34 39.64161 13.36191 31921 ft 483 kts 351°
2026-04-15 14:34 39.67466 13.35432 32233 ft 482 kts 351°
2026-04-15 14:35 39.70764 13.34682 32524 ft 480 kts 351°
2026-04-15 14:35 39.74048 13.33936 32812 ft 479 kts 351°
2026-04-15 14:35 39.77332 13.33194 33105 ft 478 kts 351°
2026-04-15 14:35 39.80608 13.32452 33381 ft 477 kts 351°
2026-04-15 14:36 39.83867 13.31709 33653 ft 475 kts 351°
2026-04-15 14:36 39.87120 13.30965 33924 ft 474 kts 351°
2026-04-15 14:36 39.90368 13.30222 34184 ft 473 kts 351°
2026-04-15 14:36 39.93606 13.29482 34418 ft 473 kts 351°
2026-04-15 14:37 39.96847 13.28741 34655 ft 472 kts 351°
2026-04-15 14:37 40.00080 13.28003 34889 ft 471 kts 351°
2026-04-15 14:37 40.03308 13.27263 35122 ft 470 kts 351°
2026-04-15 14:37 40.06529 13.26519 35387 ft 469 kts 351°
2026-04-15 14:38 40.09737 13.25777 35630 ft 468 kts 351°
2026-04-15 14:38 40.12946 13.25035 35846 ft 468 kts 351°
2026-04-15 14:38 40.16148 13.24298 35941 ft 467 kts 351°
2026-04-15 14:39 40.22515 13.22833 35952 ft 464 kts 351°
2026-04-15 14:39 40.28865 13.21368 35962 ft 463 kts 351°
2026-04-15 14:40 40.34170 13.20140 35962 ft 462 kts 351°
2026-04-15 14:40 40.40495 13.18670 35972 ft 461 kts 351°
2026-04-15 14:41 40.46815 13.17203 35975 ft 461 kts 351°
2026-04-15 14:41 40.53133 13.15730 35984 ft 461 kts 351°
2026-04-15 14:42 40.59462 13.14251 35988 ft 462 kts 351°
2026-04-15 14:42 40.65783 13.12776 35994 ft 461 kts 351°
2026-04-15 14:43 40.72098 13.11301 36003 ft 461 kts 351°
2026-04-15 14:43 40.78412 13.09815 36008 ft 461 kts 351°
2026-04-15 14:44 40.84722 13.08319 36005 ft 460 kts 351°
2026-04-15 14:44 40.91026 13.06829 36006 ft 460 kts 351°
2026-04-15 14:45 40.97326 13.05346 36007 ft 459 kts 351°
2026-04-15 14:45 41.03619 13.03857 36011 ft 459 kts 351°
2026-04-15 14:46 41.09905 13.02370 36008 ft 459 kts 351°
2026-04-15 14:46 41.16184 13.00888 36006 ft 458 kts 351°
2026-04-15 14:47 41.22451 12.99399 36003 ft 457 kts 351°
2026-04-15 14:47 41.28708 12.97900 36002 ft 457 kts 351°
2026-04-15 14:48 41.34964 12.96410 36003 ft 457 kts 351°
2026-04-15 14:48 41.41216 12.94923 36004 ft 456 kts 351°
2026-04-15 14:49 41.47465 12.93420 36013 ft 456 kts 351°
2026-04-15 14:49 41.53717 12.91910 36014 ft 456 kts 351°
2026-04-15 14:50 41.59962 12.90355 36016 ft 457 kts 351°
2026-04-15 14:50 41.66194 12.88708 36018 ft 456 kts 350°
2026-04-15 14:51 41.72420 12.87056 36022 ft 456 kts 350°
2026-04-15 14:51 41.78651 12.85429 36024 ft 456 kts 351°
2026-04-15 14:52 41.84872 12.83818 36030 ft 455 kts 351°
2026-04-15 14:52 41.91088 12.82199 36032 ft 455 kts 351°
2026-04-15 14:53 41.97307 12.80572 36031 ft 455 kts 351°
2026-04-15 14:53 42.03522 12.78948 36039 ft 455 kts 350°
2026-04-15 14:54 42.09727 12.77320 36050 ft 454 kts 350°
2026-04-15 14:54 42.15967 12.75675 36056 ft 453 kts 350°
2026-04-15 14:55 42.22165 12.74034 36041 ft 453 kts 350°
2026-04-15 14:55 42.28307 12.72406 36034 ft 453 kts 350°
2026-04-15 14:56 42.34531 12.70767 36030 ft 453 kts 350°
2026-04-15 14:56 42.40708 12.69136 36023 ft 452 kts 350°
2026-04-15 14:57 42.46883 12.67494 36019 ft 452 kts 350°
2026-04-15 14:57 42.53047 12.65838 36016 ft 451 kts 350°
2026-04-15 14:58 42.59211 12.64186 36020 ft 451 kts 350°
2026-04-15 14:58 42.65371 12.62538 36021 ft 451 kts 350°
2026-04-15 14:59 42.71530 12.60897 36028 ft 451 kts 350°
2026-04-15 14:59 42.77681 12.59251 36028 ft 451 kts 350°
2026-04-15 15:00 42.83831 12.57595 36035 ft 450 kts 349°
2026-04-15 15:00 42.89970 12.55934 36041 ft 450 kts 349°
2026-04-15 15:01 42.96111 12.54272 36041 ft 450 kts 349°
2026-04-15 15:01 43.02249 12.52607 36045 ft 449 kts 349°
2026-04-15 15:02 43.08379 12.50940 36042 ft 449 kts 349°
2026-04-15 15:02 43.14504 12.49276 36045 ft 449 kts 349°
2026-04-15 15:03 43.20623 12.47613 36043 ft 448 kts 349°
2026-04-15 15:03 43.26744 12.45946 36054 ft 448 kts 349°
2026-04-15 15:04 43.32851 12.44272 36066 ft 447 kts 349°
2026-04-15 15:04 43.38952 12.42591 36081 ft 447 kts 349°
2026-04-15 15:05 43.45045 12.40922 36096 ft 447 kts 349°
2026-04-15 15:05 43.51136 12.39244 36107 ft 446 kts 349°
2026-04-15 15:06 43.60257 12.36726 36127 ft 445 kts 349°
2026-04-15 15:06 43.66325 12.35047 36129 ft 444 kts 349°
2026-04-15 15:07 43.72388 12.33369 36147 ft 444 kts 349°
2026-04-15 15:07 43.78449 12.31687 36146 ft 444 kts 348°
2026-04-15 15:08 43.84497 12.30006 36151 ft 444 kts 348°
2026-04-15 15:08 43.90547 12.28315 36154 ft 443 kts 348°
2026-04-15 15:09 43.96588 12.26618 36160 ft 442 kts 348°
2026-04-15 15:09 44.02622 12.24925 36160 ft 442 kts 348°
2026-04-15 15:10 44.08646 12.23238 36164 ft 442 kts 348°
2026-04-15 15:10 44.14655 12.21554 36162 ft 439 kts 348°
2026-04-15 15:11 44.20633 12.19874 36168 ft 438 kts 349°
2026-04-15 15:11 44.26596 12.18186 36172 ft 437 kts 349°
2026-04-15 15:12 44.32553 12.16491 36175 ft 437 kts 348°
2026-04-15 15:12 44.38506 12.14808 36171 ft 436 kts 349°
2026-04-15 15:13 44.44449 12.13119 36171 ft 436 kts 348°
2026-04-15 15:13 44.50384 12.11422 36168 ft 435 kts 348°
2026-04-15 15:14 44.56322 12.09727 36164 ft 435 kts 349°
2026-04-15 15:14 44.62248 12.08033 36162 ft 434 kts 349°
2026-04-15 15:15 44.68165 12.06333 36159 ft 434 kts 349°
2026-04-15 15:15 44.74079 12.04639 36158 ft 434 kts 349°
2026-04-15 15:16 44.79987 12.02944 36159 ft 433 kts 349°
2026-04-15 15:16 44.85897 12.01243 36160 ft 433 kts 349°
2026-04-15 15:17 44.90795 11.99822 36163 ft 432 kts 349°
2026-04-15 15:17 44.96679 11.98115 36168 ft 431 kts 349°
2026-04-15 15:18 45.02542 11.96415 36173 ft 429 kts 349°
2026-04-15 15:18 45.08379 11.94718 36170 ft 427 kts 349°
2026-04-15 15:19 45.14196 11.93026 36167 ft 426 kts 349°
2026-04-15 15:19 45.19996 11.91330 36167 ft 425 kts 349°
2026-04-15 15:20 45.25820 11.89629 36166 ft 424 kts 349°
2026-04-15 15:20 45.31551 11.87950 36165 ft 423 kts 349°
2026-04-15 15:21 45.37341 11.86251 36166 ft 423 kts 349°
2026-04-15 15:21 45.43109 11.84550 36167 ft 422 kts 349°
2026-04-15 15:22 45.48869 11.82844 36164 ft 422 kts 349°
2026-04-15 15:22 45.54612 11.81151 36162 ft 422 kts 349°
2026-04-15 15:23 45.60357 11.79452 36166 ft 421 kts 349°
2026-04-15 15:23 45.66091 11.77749 36166 ft 421 kts 349°
2026-04-15 15:24 45.71822 11.76043 36166 ft 421 kts 349°
2026-04-15 15:24 45.77553 11.74323 36169 ft 420 kts 349°
2026-04-15 15:25 45.83241 11.72620 36171 ft 420 kts 349°
2026-04-15 15:25 45.88998 11.70895 36181 ft 420 kts 349°
2026-04-15 15:26 45.94726 11.69186 36183 ft 420 kts 349°
2026-04-15 15:26 46.00448 11.67485 36194 ft 419 kts 349°
2026-04-15 15:27 46.06159 11.65759 36204 ft 419 kts 349°
2026-04-15 15:27 46.11866 11.64027 36215 ft 419 kts 349°
2026-04-15 15:28 46.17575 11.62302 36226 ft 419 kts 349°
2026-04-15 15:28 46.23286 11.60606 36237 ft 418 kts 350°
2026-04-15 15:29 46.28993 11.58955 36245 ft 418 kts 350°
2026-04-15 15:29 46.34695 11.57313 36242 ft 417 kts 350°
2026-04-15 15:30 46.40382 11.55655 36234 ft 417 kts 350°
2026-04-15 15:30 46.46051 11.53985 36199 ft 415 kts 350°
2026-04-15 15:31 46.51696 11.52315 36187 ft 414 kts 350°
2026-04-15 15:31 46.57343 11.50647 36173 ft 414 kts 350°
2026-04-15 15:32 46.62984 11.48995 36174 ft 413 kts 350°
2026-04-15 15:32 46.68621 11.47341 36169 ft 413 kts 350°
2026-04-15 15:33 46.74237 11.45580 36174 ft 413 kts 349°
2026-04-15 15:33 46.79831 11.43699 36172 ft 412 kts 349°
2026-04-15 15:34 46.85418 11.41822 36172 ft 412 kts 349°
2026-04-15 15:34 46.91010 11.39981 36172 ft 412 kts 349°
2026-04-15 15:35 46.96595 11.38154 36170 ft 410 kts 351°
2026-04-15 15:35 47.02257 11.37635 36174 ft 408 kts
2026-04-15 15:36 47.07925 11.37586 36170 ft 407 kts
2026-04-15 15:36 47.13582 11.37532 36169 ft 407 kts
2026-04-15 15:37 47.19241 11.37474 36162 ft 406 kts
2026-04-15 15:37 47.24893 11.37407 36162 ft 406 kts
2026-04-15 15:38 47.30531 11.37355 36158 ft 405 kts
2026-04-15 15:38 47.36171 11.37309 36158 ft 405 kts
2026-04-15 15:39 47.41807 11.37252 36161 ft 405 kts
2026-04-15 15:39 47.47442 11.37197 36162 ft 405 kts
2026-04-15 15:40 47.53074 11.37142 36161 ft 404 kts
2026-04-15 15:40 47.58701 11.37091 36160 ft 404 kts
2026-04-15 15:41 47.64320 11.37040 36168 ft 403 kts
2026-04-15 15:41 47.69926 11.36974 36173 ft 403 kts
2026-04-15 15:42 47.75542 11.36917 36180 ft 403 kts
2026-04-15 15:42 47.81147 11.36861 36187 ft 403 kts
2026-04-15 15:43 47.86741 11.36661 36199 ft 403 kts 355°
2026-04-15 15:43 47.92323 11.35836 36205 ft 403 kts 355°
2026-04-15 15:44 47.97909 11.34993 36205 ft 403 kts 355°
2026-04-15 15:44 48.03491 11.34155 36208 ft 403 kts 355°
2026-04-15 15:45 48.09072 11.33333 36213 ft 403 kts 355°
2026-04-15 15:45 48.14649 11.32503 36214 ft 402 kts 355°
2026-04-15 15:46 48.20216 11.31671 36213 ft 402 kts 355°
2026-04-15 15:46 48.25817 11.30841 36212 ft 402 kts 355°
2026-04-15 15:47 48.31380 11.30015 36212 ft 402 kts 355°
2026-04-15 15:47 48.36944 11.29178 36211 ft 401 kts 355°
2026-04-15 15:48 48.42501 11.28329 36211 ft 401 kts 355°
2026-04-15 15:48 48.48053 11.27486 36208 ft 401 kts 355°
2026-04-15 15:49 48.53611 11.26646 36209 ft 401 kts 355°
2026-04-15 15:49 48.59164 11.25809 36209 ft 401 kts 355°
2026-04-15 15:50 48.64721 11.24966 36208 ft 401 kts 355°
2026-04-15 15:50 48.70269 11.24124 36206 ft 400 kts 355°
2026-04-15 15:51 48.75812 11.23272 36207 ft 401 kts 353°
2026-04-15 15:51 48.78516 11.22294 36007 ft 401 kts 339°
2026-04-15 15:51 48.80925 11.20159 35557 ft 404 kts 323°
2026-04-15 15:52 48.83042 11.17380 35112 ft 400 kts 322°
2026-04-15 15:52 48.85123 11.14612 34685 ft 396 kts 322°
2026-04-15 15:52 48.87183 11.11877 34258 ft 391 kts 322°
2026-04-15 15:52 48.89223 11.09177 33827 ft 387 kts 322°
2026-04-15 15:53 48.91235 11.06515 33399 ft 382 kts 322°
2026-04-15 15:53 48.93231 11.03875 32980 ft 377 kts 322°
2026-04-15 15:53 48.95193 11.01279 32570 ft 372 kts 322°
2026-04-15 15:53 48.97139 10.98707 32154 ft 368 kts 322°
2026-04-15 15:54 48.99059 10.96172 31745 ft 363 kts 322°
2026-04-15 15:54 49.00954 10.93664 31342 ft 359 kts 322°
2026-04-15 15:54 49.02829 10.91180 30947 ft 355 kts 321°
2026-04-15 15:54 49.04054 10.89553 30698 ft 352 kts 321°
2026-04-15 15:55 49.05890 10.87117 30317 ft 348 kts 321°
2026-04-15 15:55 49.07698 10.84716 29942 ft 344 kts 321°
2026-04-15 15:55 49.09499 10.82319 29560 ft 341 kts 321°
2026-04-15 15:55 49.11272 10.79953 29205 ft 339 kts 321°
2026-04-15 15:56 49.13048 10.77579 28853 ft 338 kts 321°
2026-04-15 15:56 49.14814 10.75220 28499 ft 337 kts 320°
2026-04-15 15:56 49.16573 10.72868 28156 ft 336 kts 320°
2026-04-15 15:56 49.18332 10.70511 27817 ft 336 kts 320°
2026-04-15 15:57 49.20085 10.68165 27474 ft 335 kts 320°
2026-04-15 15:57 49.21834 10.65821 27132 ft 334 kts 320°
2026-04-15 15:57 49.23578 10.63476 26788 ft 334 kts 320°
2026-04-15 15:57 49.25320 10.61131 26445 ft 333 kts 319°
2026-04-15 15:58 49.27053 10.58795 26105 ft 332 kts 319°
2026-04-15 15:58 49.28778 10.56468 25753 ft 330 kts 319°
2026-04-15 15:58 49.30504 10.54140 25392 ft 330 kts 319°
2026-04-15 15:58 49.32222 10.51819 25036 ft 329 kts 319°
2026-04-15 15:59 49.33934 10.49503 24667 ft 328 kts 319°
2026-04-15 15:59 49.35624 10.47158 24293 ft 327 kts 314°
2026-04-15 15:59 49.37078 10.44445 23944 ft 339 kts 305°
2026-04-15 15:59 49.38453 10.41430 23600 ft 349 kts 305°
2026-04-15 16:00 49.39851 10.38371 23234 ft 350 kts 305°
2026-04-15 16:00 49.41251 10.35310 22873 ft 349 kts 305°
2026-04-15 16:00 49.42644 10.32257 22514 ft 348 kts 304°
2026-04-15 16:00 49.44044 10.29177 22154 ft 346 kts 304°
2026-04-15 16:01 49.45421 10.26155 21802 ft 344 kts 304°
2026-04-15 16:01 49.46791 10.23156 21450 ft 342 kts 304°
2026-04-15 16:01 49.48151 10.20164 21100 ft 340 kts 304°
2026-04-15 16:01 49.49497 10.17187 20756 ft 339 kts 304°
2026-04-15 16:02 49.50836 10.14217 20404 ft 337 kts 303°
2026-04-15 16:02 49.52153 10.11294 20062 ft 335 kts 303°
2026-04-15 16:02 49.53495 10.08319 19717 ft 334 kts 303°
2026-04-15 16:02 49.54800 10.05429 19379 ft 332 kts 303°
2026-04-15 16:03 49.56130 10.02484 19038 ft 330 kts 303°
2026-04-15 16:03 49.57439 9.99582 18702 ft 329 kts 303°
2026-04-15 16:03 49.58740 9.96701 18372 ft 327 kts 303°
2026-04-15 16:03 49.60036 9.93828 18033 ft 325 kts 303°
2026-04-15 16:04 49.61307 9.91010 17717 ft 324 kts 303°
2026-04-15 16:04 49.62600 9.88130 17378 ft 322 kts 303°
2026-04-15 16:04 49.63870 9.85289 17049 ft 321 kts 303°
2026-04-15 16:04 49.65131 9.82468 16716 ft 320 kts 303°
2026-04-15 16:05 49.66393 9.79642 16395 ft 318 kts 303°
2026-04-15 16:05 49.67641 9.76834 16061 ft 317 kts 303°
2026-04-15 16:05 49.68886 9.74038 15733 ft 315 kts 303°
2026-04-15 16:05 49.70122 9.71249 15414 ft 314 kts 303°
2026-04-15 16:06 49.71351 9.68471 15090 ft 313 kts 303°
2026-04-15 16:06 49.72580 9.65705 14759 ft 312 kts 303°
2026-04-15 16:06 49.73806 9.62955 14448 ft 310 kts 303°
2026-04-15 16:06 49.75028 9.60211 14120 ft 309 kts 303°
2026-04-15 16:07 49.76241 9.57474 13792 ft 308 kts 303°
2026-04-15 16:07 49.77447 9.54756 13435 ft 305 kts 303°
2026-04-15 16:07 49.79824 9.49367 12554 ft 302 kts 303°
2026-04-15 16:08 49.81003 9.46685 12111 ft 300 kts 304°
2026-04-15 16:08 49.82175 9.44024 11668 ft 299 kts 304°
2026-04-15 16:08 49.83344 9.41380 11245 ft 296 kts 304°
2026-04-15 16:08 49.84498 9.38761 10811 ft 295 kts 303°
2026-04-15 16:09 49.85651 9.36113 10370 ft 294 kts 301°
2026-04-15 16:09 49.86507 9.33285 10179 ft 288 kts 287°
2026-04-15 16:09 49.87071 9.30307 10189 ft 288 kts 285°
2026-04-15 16:09 49.87638 9.27330 10189 ft 288 kts 285°
2026-04-15 16:10 49.88209 9.24369 9935 ft 285 kts 286°
2026-04-15 16:10 49.88777 9.21432 9513 ft 284 kts 285°
2026-04-15 16:10 49.89344 9.18504 9118 ft 283 kts 285°
2026-04-15 16:10 49.89905 9.15587 8708 ft 283 kts 285°
2026-04-15 16:11 49.90459 9.12673 8326 ft 281 kts 285°
2026-04-15 16:11 49.91003 9.09771 7925 ft 279 kts 286°
2026-04-15 16:11 49.91550 9.06886 7505 ft 279 kts 286°
2026-04-15 16:11 49.92093 9.04030 7363 ft 277 kts 285°
2026-04-15 16:12 49.92639 9.01148 7240 ft 279 kts 285°
2026-04-15 16:12 49.93250 8.98288 7107 ft 279 kts 296°
2026-04-15 16:12 49.94459 8.95987 6922 ft 277 kts 323°
2026-04-15 16:12 49.96194 8.94783 6524 ft 275 kts 351°
2026-04-15 16:13 49.98076 8.94967 6128 ft 272 kts 19°
2026-04-15 16:13 49.99665 8.96483 5742 ft 269 kts 47°
2026-04-15 16:13 50.00861 8.98701 5339 ft 268 kts 53°
2026-04-15 16:13 50.01991 9.01005 4939 ft 268 kts 54°
2026-04-15 16:14 50.03108 9.03308 4564 ft 266 kts 54°
2026-04-15 16:14 50.04219 9.05602 4222 ft 264 kts 54°
2026-04-15 16:14 50.05297 9.07830 4099 ft 252 kts 54°
2026-04-15 16:14 50.06325 9.09955 4002 ft 239 kts 53°
2026-04-15 16:15 50.07309 9.11987 4019 ft 234 kts 54°
2026-04-15 16:15 50.08306 9.13986 4017 ft 234 kts 47°
2026-04-15 16:15 50.09681 9.15303 4018 ft 235 kts 14°
2026-04-15 16:15 50.11299 9.15278 4017 ft 236 kts 342°
2026-04-15 16:16 50.12667 9.13914 4020 ft 236 kts 309°
2026-04-15 16:16 50.13418 9.11659 4018 ft 236 kts 287°
2026-04-15 16:16 50.13881 9.09220 4019 ft 229 kts 284°
2026-04-15 16:16 50.14278 9.06933 4018 ft 209 kts 284°
2026-04-15 16:17 50.14581 9.04814 4026 ft 195 kts 272°
2026-04-15 16:17 50.14401 9.02748 4031 ft 193 kts 249°
2026-04-15 16:17 50.13941 9.00785 4028 ft 192 kts 248°
2026-04-15 16:17 50.13477 8.98801 4027 ft 193 kts 249°
2026-04-15 16:18 50.13017 8.96837 4026 ft 192 kts 249°
2026-04-15 16:18 50.12559 8.94884 4029 ft 192 kts 248°
2026-04-15 16:18 50.12105 8.92946 4022 ft 192 kts 249°
2026-04-15 16:18 50.11640 8.90964 4023 ft 192 kts 249°
2026-04-15 16:19 50.11181 8.89010 4028 ft 192 kts 248°
2026-04-15 16:19 50.10720 8.87050 3999 ft 193 kts 249°
2026-04-15 16:19 50.10260 8.85091 3841 ft 192 kts 248°
2026-04-15 16:19 50.09801 8.83140 3618 ft 191 kts 248°
2026-04-15 16:20 50.09345 8.81202 3382 ft 190 kts 248°
2026-04-15 16:20 50.08889 8.79266 3123 ft 190 kts 248°
2026-04-15 16:20 50.08433 8.77338 2867 ft 190 kts 249°
2026-04-15 16:20 50.07996 8.75398 2613 ft 190 kts 252°
2026-04-15 16:21 50.07703 8.73393 2375 ft 190 kts 261°
2026-04-15 16:21 50.07551 8.71394 2198 ft 178 kts 261°
2026-04-15 16:21 50.07236 8.69668 2052 ft 158 kts 248°
2026-04-15 16:21 50.06802 8.68142 1732 ft 151 kts 246°
2026-04-15 16:22 50.06405 8.66664 1437 ft 145 kts 248°
2026-04-15 16:22 50.06076 8.65171 1162 ft 145 kts 251°
2026-04-15 16:22 50.05719 8.63722 976 ft 144 kts 249°
2026-04-15 16:22 50.05370 8.62269 818 ft 144 kts 250°
2026-04-15 16:23 50.05017 8.60807 665 ft 146 kts 249°
2026-04-15 16:23 50.04660 8.59313 499 ft 147 kts 250°
2026-04-15 16:23 50.04307 8.57829 373 ft 144 kts 250°
2026-04-15 16:23 50.04004 8.56563 360 ft 102 kts 249°
2026-04-15 16:24 50.03887 8.56006 351 ft 37 kts 267°
2026-04-15 16:24 50.03897 8.55753 351 ft 11 kts 278°
2026-04-15 16:24 50.03910 8.55627 352 ft 7 kts 280°
2026-04-15 16:24 50.03911 8.55621 353 ft 0 kts 280°
2026-04-15 16:25 50.03912 8.55614 355 ft 3 kts 285°
2026-04-15 16:25 50.03948 8.55594 350 ft 7 kts 17°
2026-04-15 16:26 50.03981 8.55671 349 ft 12 kts 69°
2026-04-15 16:26 50.04020 8.55835 350 ft 18 kts 70°
2026-04-15 16:26 50.04065 8.56020 351 ft 19 kts 69°
2026-04-15 16:26 50.04115 8.56231 352 ft 22 kts 70°
2026-04-15 16:27 50.04169 8.56456 359 ft 22 kts 69°
2026-04-15 16:27 50.04224 8.56685 361 ft 23 kts 69°
2026-04-15 16:27 50.04279 8.56914 360 ft 23 kts 69°
2026-04-15 16:27 50.04331 8.57138 361 ft 20 kts 70°
2026-04-15 16:28 50.04378 8.57333 361 ft 19 kts 69°
2026-04-15 16:28 50.04425 8.57528 362 ft 20 kts 70°
2026-04-15 16:28 50.04468 8.57706 368 ft 16 kts 69°
2026-04-15 16:28 50.04508 8.57873 364 ft 18 kts 70°
2026-04-15 16:29 50.04551 8.58060 363 ft 19 kts 70°
2026-04-15 16:29 50.04597 8.58246 372 ft 17 kts 69°
2026-04-15 16:29 50.04634 8.58401 369 ft 14 kts 70°
2026-04-15 16:29 50.04666 8.58532 369 ft 12 kts 70°
2026-04-15 16:30 50.04693 8.58648 369 ft 11 kts 69°
2026-04-15 16:30 50.04715 8.58729 369 ft 13 kts 66°
2026-04-15 16:30 50.04754 8.58884 369 ft 18 kts 70°
2026-04-15 16:30 50.04798 8.59068 372 ft 17 kts 69°
2026-04-15 16:31 50.04836 8.59224 368 ft 14 kts 69°
2026-04-15 16:31 50.04859 8.59281 368 ft 2 kts 25°
2026-04-15 16:31 50.04878 8.59284 367 ft 5 kts 356°
2026-04-15 16:31 50.04921 8.59261 366 ft 7 kts 339°
2026-04-15 16:32 50.04929 8.59256 365 ft 1 kts 338°
2026-04-15 16:32 50.04930 8.59256 365 ft 0 kts 338°